Dewpoint
48 48 47 47 47 48 48 48 48 48 47 46 46 46 46 48 49 47 33 26 40 40 43 36 31 25 29 21 25 31 30 27 28 27 27 29 25 20 21 18 20 13 17 35 47
48 47 47 47 47 48 47 48 48 48 47 46 46 45 46 49 47 41 40 43 44 46 33 29 22 16 29 22 21 24 24 28 30 30 28 27 25 23 20 19 19 19 27 43 46
48 47 47 47 47 47 47 48 48 47 46 46 45 45 48 49 38 28 42 48 47 50 27 23 21 14 18 22 22 22 22 23 22 24 26 26 25 23 20 19 19 19 20 25 40
48 47 47 47 47 47 48 48 47 46 45 45 44 46 48 47 3 34 44 45 46 41 31 25 20 14 12 19 24 21 20 19 20 21 20 20 21 19 20 20 21 21 19 19 22
48 47 47 47 47 47 47 47 45 45 44 44 44 47 45 37 31 35 45 45 42 36 30 29 28 24 16 13 16 18 22 23 22 22 21 20 19 18 18 20 18 15 16 17 16
48 48 47 47 47 47 46 45 44 44 44 44 46 46 43 16 20 29 45 44 37 29 32 32 33 31 27 23 17 14 15 14 16 17 18 17 16 16 17 18 18 18 17 18 17
49 48 48 48 47 45 43 43 45 44 43 45 46 46 43 25 29 31 33 28 29 30 27 25 27 21 21 21 24 24 22 22 20 17 16 15 14 14 17 18 17 17 17 17 19
48 48 48 46 44 43 43 44 45 43 44 45 49 45 36 38 38 37 33 29 22 18 17 19 18 14 20 24 22 22 21 20 18 16 15 13 11 12 11 11 11 12 14 15 14
48 48 46 43 44 44 44 44 43 43 44 47 48 45 36 41 37 35 32 25 19 21 21 19 16 12 13 18 19 20 18 18 18 17 15 14 12 13 12 13 12 12 11 13 16
49 47 43 43 44 45 45 43 43 44 43 47 46 42 40 29 23 25 27 27 25 27 20 18 14 10 12 14 15 16 16 17 15 14 12 13 12 13 15 14 14 13 14 14 12
47 43 43 43 43 43 43 38 39 40 40 39 37 36 33 29 19 21 21 16 20 23 23 18 11 9 8 11 14 14 14 13 12 12 13 13 12 11 11 13 13 14 13 12 11
44 43 43 43 42 42 42 35 28 29 24 33 41 39 39 36 20 27 27 19 15 12 22 23 17 15 14 13 12 12 11 11 12 13 13 12 11 10 11 12 13 14 15 15 15
44 43 42 42 42 39 36 30 34 32 20 20 24 28 31 26 24 27 22 21 13 12 15 21 19 21 19 18 17 15 12 12 13 14 13 11 10 12 14 14 14 16 17 19 22
44 42 41 41 34 37 33 31 37 37 10 18 21 20 23 27 25 27 26 22 17 13 13 13 14 15 15 17 19 16 17 15 15 16 14 14 12 15 16 18 20 21 25 43 45
43 41 41 41 38 35 31 33 34 39 -12 20 17 25 23 21 16 25 26 23 19 18 19 18 17 16 15 15 16 15 17 18 18 17 16 17 15 14 16 17 19 23 43 44 45
41 40 41 36 39 37 35 36 37 28 -7 18 23 21 15 15 10 24 24 23 22 20 20 19 20 19 17 16 15 16 18 18 18 17 14 16 16 15 15 27 39 42 44 45 45
39 39 38 37 36 38 38 36 28 19 15 9 12 9 3 2 1 -2 6 17 14 11 10 18 14 16 21 20 18 14 18 16 15 14 13 14 16 16 24 39 40 41 42 43 43
39 39 37 35 36 39 39 31 22 12 7 5 3 -3 -4 0 -1 2 2 1 25 27 25 22 17 21 23 22 22 18 15 15 16 16 17 22 19 25 39 40 42 41 43 41 40
39 36 34 39 37 40 34 25 14 10 8 5 2 -1 4 7 8 7 6 22 26 23 21 22 22 21 21 22 25 23 17 21 19 21 22 22 20 31 38 39 40 39 41 39 37
36 36 37 40 39 38 31 23 11 10 9 7 -0 7 7 7 8 7 6 22 23 22 23 24 18 20 21 17 16 26 27 22 24 18 15 19 19 25 35 36 39 40 38 36 35
33 33 34 37 39 35 20 17 12 12 11 10 10 9 8 9 9 9 9 22 23 24 27 24 23 19 18 14 17 14 24 29 29 23 18 17 22 37 36 38 38 39 35 33 33
34 29 34 37 33 33 23 18 13 11 12 12 13 13 12 11 10 8 9 21 26 24 20 26 22 19 16 17 17 16 17 32 26 24 26 24 25 38 38 40 38 34 33 32 31
32 26 32 36 25 21 17 13 13 12 13 12 12 13 12 10 9 13 17 27 23 21 21 24 19 13 7 6 19 21 20 29 30 30 26 24 25 37 38 34 34 33 31 31 31
34 17 26 30 29 21 16 15 14 14 10 10 11 13 12 16 16 15 13 21 20 28 31 27 23 16 11 12 20 19 21 23 25 23 25 25 30 35 33 35 34 32 31 29 29
34 28 26 20 20 19 18 15 15 13 14 14 13 14 13 13 13 13 14 15 15 29 31 25 20 22 23 21 20 18 18 17 18 22 26 29 30 31 33 32 30 30 29 28 28
28 21 25 19 20 16 17 13 15 14 13 12 11 13 13 11 12 13 17 16 14 17 26 30 20 23 16 17 16 18 20 20 21 29 31 33 29 33 32 31 29 28 28 27 26
31 30 22 19 20 18 17 17 15 15 15 15 16 14 13 15 19 20 20 20 19 17 16 21 19 15 12 17 18 14 16 18 31 31 33 29 30 32 29 27 27 27 26 26 26
Wind_Speed
10 9 9 9 9 10 12 13 13 14 15 17 19 21 22 22 23 11 13 15 9 11 5 8 4 5 2 4 5 4 9 14 15 18 17 24 20 1 9 13 14 10 0 6 11
13 11 10 10 10 11 12 13 14 15 16 17 18 19 21 21 15 15 16 12 17 7 4 6 6 2 4 4 6 12 14 14 11 15 19 25 17 21 17 18 17 16 12 1 13
15 13 12 11 11 11 12 13 14 16 17 18 17 18 18 18 8 6 3 14 14 10 7 3 5 2 7 4 7 6 20 11 14 17 19 22 27 16 19 20 14 14 17 6 8
16 14 13 11 12 11 12 12 15 16 17 17 18 16 18 3 9 2 1 4 7 6 5 4 6 4 5 10 11 19 16 17 18 23 25 28 28 28 19 23 16 14 12 11 9
15 13 13 11 12 13 13 14 16 17 16 16 15 13 6 4 16 7 4 5 7 7 7 7 7 5 7 6 8 16 23 22 23 25 29 29 30 33 35 19 19 18 14 16 23
15 12 12 12 11 14 16 16 17 18 16 16 12 7 1 15 8 11 10 5 6 5 5 7 6 5 10 14 14 13 20 19 13 12 10 13 18 15 13 17 17 19 25 19 20
15 12 11 11 11 13 15 19 18 20 20 16 10 4 6 23 4 3 4 8 9 11 12 13 10 5 7 11 6 7 12 15 10 8 12 10 37 21 17 18 24 26 24 26 24
16 13 10 9 10 10 15 17 19 21 21 16 8 5 11 9 11 16 14 12 14 18 16 15 7 7 5 6 9 8 9 10 1 7 10 0 45 18 22 23 29 30 26 26 24
14 12 9 7 8 12 15 19 20 21 17 12 2 5 12 12 5 14 16 11 8 14 15 14 4 5 4 3 5 4 17 19 14 16 16 9 33 11 17 17 22 24 25 22 22
16 13 9 6 9 11 14 20 19 4 5 6 7 4 10 4 0 3 7 10 3 5 1 6 1 5 3 5 16 8 10 10 14 8 9 16 26 21 14 21 24 24 21 23 26
16 12 8 5 10 10 7 5 1 1 6 13 10 8 3 7 4 6 5 3 0 4 6 5 6 17 17 17 12 13 19 24 23 18 15 25 26 29 19 21 26 26 23 24 26
16 10 6 7 9 10 5 3 3 3 9 23 28 26 25 11 7 7 8 7 8 11 9 4 17 20 17 15 14 18 24 26 28 25 18 24 31 29 25 21 25 27 27 27 27
15 10 6 6 8 8 8 4 6 5 4 9 10 12 11 10 6 7 12 9 7 11 14 16 14 11 15 18 17 23 21 24 27 14 10 16 32 24 24 24 22 24 23 24 24
12 8 5 3 4 2 4 4 5 5 2 4 6 5 8 7 6 12 7 5 4 9 15 12 22 20 19 17 19 26 20 24 22 16 25 6 29 39 28 25 23 23 19 10 17
12 7 2 2 6 2 4 1 2 1 5 11 8 7 9 7 6 4 9 5 6 8 3 8 17 19 16 14 11 23 15 20 15 16 13 29 7 47 17 30 30 21 6 11 13
10 6 1 2 4 9 3 2 3 2 7 9 7 10 5 9 7 2 3 1 3 6 10 14 8 6 15 20 13 15 9 4 3 4 21 38 10 37 17 8 12 14 8 10 15
6 3 3 5 4 2 1 4 5 7 13 5 7 7 2 3 3 4 4 4 1 5 6 12 11 12 10 13 13 9 3 12 9 8 27 16 14 28 16 1 10 20 16 15 12
4 2 4 11 7 2 2 3 6 3 6 6 4 3 4 5 2 2 4 4 12 4 2 6 9 6 15 7 7 17 14 15 7 7 9 11 10 5 10 8 7 18 25 23 22
1 1 4 7 15 3 4 5 2 3 3 3 2 2 5 5 6 5 6 5 7 11 3 7 5 23 11 12 10 8 10 8 17 14 14 9 17 6 16 16 16 18 13 16 23
2 4 4 8 7 3 3 2 4 4 1 2 3 4 4 4 6 5 3 7 5 8 4 2 12 2 10 17 6 7 12 9 5 9 14 10 14 2 18 14 17 8 9 15 18
2 4 3 7 4 2 4 3 8 6 3 4 3 4 5 3 3 2 2 4 3 4 5 2 3 8 8 2 11 14 8 8 6 12 12 13 8 3 3 5 2 6 13 16 17
3 5 6 5 5 2 3 3 5 6 5 4 4 4 5 4 4 3 2 3 1 2 2 1 2 8 13 22 22 20 8 2 9 3 6 8 10 7 14 17 14 10 12 16 18
5 4 1 3 5 5 5 5 7 4 9 3 5 7 6 3 2 1 5 3 2 3 1 0 1 7 14 7 13 7 9 4 7 9 12 10 6 12 14 13 16 13 15 17 19
2 5 1 1 2 7 9 6 6 4 4 4 2 3 1 1 1 2 6 4 5 3 4 2 4 8 13 16 14 18 22 18 7 10 13 16 9 9 5 7 11 11 14 17 19
2 3 4 6 4 10 7 6 12 5 4 11 4 10 6 0 4 2 4 7 8 6 4 4 5 6 10 13 19 24 25 26 21 20 15 16 6 8 6 10 13 11 14 16 20
3 3 4 8 8 13 4 2 9 8 4 3 3 4 5 1 3 7 7 4 6 6 5 2 5 4 21 16 18 20 21 21 20 17 17 12 14 13 11 10 15 15 14 16 19
3 2 5 3 6 7 2 4 9 6 1 3 2 4 8 7 5 10 13 13 15 13 11 8 6 6 19 11 20 22 21 22 8 11 8 2 7 12 11 13 12 11 13 15 15
Wind_Direction
232 242 261 276 288 296 304 310 314 319 322 324 327 328 325 322 315 296 263 226 186 241 283 293 294 247 216 229 206 154 235 237 239 242 248 288 298 178 316 335 331 320 147 170 146
229 230 243 260 278 293 300 306 311 316 319 323 327 328 325 325 310 272 251 232 231 231 223 241 257 233 217 234 213 206 223 235 236 251 273 283 283 298 317 316 315 339 8 90 153
230 234 236 249 265 278 291 302 307 312 317 320 324 326 323 325 310 256 312 231 238 196 223 248 265 239 227 236 224 224 241 258 273 274 274 276 286 277 289 281 285 296 310 264 236
228 231 239 245 263 276 288 295 303 307 312 316 321 325 321 305 293 325 170 128 165 167 192 218 198 194 226 216 250 260 269 258 263 263 270 273 271 278 258 265 260 258 263 274 205
222 233 246 253 267 277 287 294 297 301 305 308 316 326 348 278 251 251 211 165 150 157 202 207 213 188 236 244 266 247 256 265 265 263 263 268 272 270 275 268 269 280 267 262 279
215 223 240 257 269 286 293 296 299 300 298 300 308 315 262 269 253 261 181 185 205 195 221 206 228 221 270 268 264 269 275 266 266 256 266 276 278 286 288 289 280 281 286 279 266
211 217 232 251 268 286 297 301 300 300 297 298 298 217 242 248 254 3 172 240 236 205 250 259 261 242 314 307 261 288 305 311 289 279 282 304 280 268 276 275 284 288 277 276 272
213 220 219 236 263 285 293 293 298 299 298 294 262 193 253 256 249 257 257 254 241 238 229 257 264 270 226 289 311 324 298 274 291 299 286 150 275 289 292 296 291 278 273 273 270
213 215 217 244 277 288 292 298 294 291 286 273 192 200 263 299 228 250 224 243 239 250 243 247 272 241 270 272 319 264 263 277 291 274 277 250 276 292 308 297 298 284 275 265 262
198 208 209 249 282 291 305 301 280 297 251 220 265 222 260 206 254 269 203 203 209 337 85 198 221 245 252 195 238 243 258 257 265 294 268 275 280 285 271 284 279 272 265 270 270
197 196 216 249 280 304 334 356 24 245 228 196 213 228 279 318 271 238 220 187 236 302 221 219 194 231 240 231 236 255 271 275 280 274 269 279 289 288 284 283 287 288 287 275 270
193 185 221 264 291 302 297 219 175 190 293 237 245 247 286 282 296 289 158 185 205 235 246 247 240 242 244 245 244 253 258 270 275 270 249 279 278 276 284 275 274 275 276 276 281
184 185 201 267 306 288 209 232 123 111 252 279 211 231 227 220 229 277 164 185 210 223 237 239 253 270 238 256 253 251 249 261 266 289 270 282 281 288 284 279 279 279 275 277 280
169 187 200 307 260 236 223 167 127 124 252 242 199 226 183 172 245 221 220 164 200 236 242 252 261 247 261 252 247 265 252 257 269 294 294 191 289 291 282 277 280 288 292 31 17
162 180 193 204 320 220 140 318 135 32 241 160 154 159 168 187 308 203 180 163 231 249 239 251 304 306 295 275 270 269 260 253 273 287 307 281 257 278 317 297 289 291 45 47 39
148 161 190 241 181 247 288 89 110 183 241 176 143 172 164 199 249 138 173 82 246 252 258 254 264 259 272 279 262 286 293 292 273 249 269 271 253 278 291 300 357 340 24 47 18
146 175 179 296 191 206 181 127 172 215 142 125 136 142 121 204 317 157 257 159 274 325 304 309 276 277 298 292 295 263 265 287 285 253 257 284 274 260 284 8 45 25 9 357 42
157 239 265 225 243 283 115 168 197 88 59 47 70 92 197 48 23 61 98 45 48 71 310 330 324 15 350 345 296 281 227 231 264 258 295 331 266 277 23 13 344 41 15 353 3
2 224 243 231 230 174 161 204 121 58 12 60 65 162 108 21 72 73 50 79 49 42 56 336 265 333 10 349 335 333 251 242 244 270 289 257 261 283 32 33 31 18 2 328 18
180 197 215 185 168 135 183 209 85 64 51 13 119 62 107 27 68 47 23 32 104 47 42 330 299 318 343 335 326 345 301 277 263 256 264 258 257 316 5 7 18 20 345 358 10
163 132 194 172 132 146 188 121 108 79 109 67 76 86 60 76 56 66 20 59 37 29 87 12 245 302 332 314 318 334 327 318 283 235 253 276 286 230 272 262 217 358 6 9 6
159 142 184 145 158 172 149 115 115 102 66 98 75 73 81 61 40 44 28 107 100 56 347 122 280 288 287 281 265 244 287 269 284 321 280 259 263 22 40 17 91 44 12 10 4
170 121 91 140 151 138 142 80 61 70 50 63 62 42 52 50 34 317 26 153 359 12 240 86 290 322 309 329 33 10 321 297 277 270 249 251 249 60 66 45 33 15 12 11 5
127 117 87 162 246 129 117 116 114 59 77 76 36 17 333 79 117 294 337 165 38 109 120 125 205 221 258 286 319 295 296 296 269 282 302 288 268 93 83 75 51 18 19 16 12
177 157 166 165 120 106 110 116 137 125 68 42 68 41 40 232 322 342 15 326 343 169 135 169 236 247 260 288 284 275 277 275 262 268 257 286 145 89 34 41 51 22 23 18 17
143 127 62 102 120 112 74 126 113 81 85 52 35 12 46 29 263 289 298 292 244 247 185 202 256 273 296 295 288 297 277 269 257 261 263 250 115 111 71 45 38 26 20 22 19
344 331 114 96 111 105 69 96 109 110 107 99 39 331 310 309 308 284 261 243 238 231 239 228 240 296 282 308 318 295 256 238 109 29 225 81 91 114 90 60 31 28 31 27 17